AirNav   Everest Fuels
 
 1040 users online  

PN09 Charles Cole Memorial Hospital Heliport
Coudersport, Pennsylvania, USA

GOING TO COUDERSPORT?


FAA INFORMATION EFFECTIVE 18 JUNE 2020

Location

FAA Identifier: PN09
Lat/Long: 41-46-18.0000N 077-58-47.0000W
41-46.300000N 077-58.783333W
41.7716667,-77.9797222
(estimated)
Elevation: 1753 ft. / 534.3 m (surveyed)
Variation: 12W (1995)
From city: 2 miles E of COUDERSPORT, PA
Time zone: UTC -4 (UTC -5 during Standard Time)
Zip code: 16915

Heliport Operations

Heliport use: Private use, MEDICAL USE.
Activation date: 04/1999
Control tower: no
ARTCC: CLEVELAND CENTER
FSS: ALTOONA FLIGHT SERVICE STATION
NOTAMs facility: FDC (NOTAM-D service not available)
Attendance: UNATNDD
Wind indicator: lighted
Segmented circle: no
Lights: PHONE REQ

Heliport Communications

  • APCH/DEP SVC PRVDD BY CLEVELAND ARTCC (ZOB) ON 124.325/353.85 (WAYLAND RCAG).

Nearby radio navigation aids

VOR radial/distance  VOR name  Freq  Var
SLTr006/15.5SLATE RUN VORTAC113.9008W
ELZr186/19.1WELLSVILLE VORTAC111.4009W
SFKr288/25.5STONYFORK VOR/DME108.6008W
BFDr099/28.6BRADFORD VOR/DME116.6007W
ETGr022/34.2KEATING VORTAC116.0010W

Heliport Services

Runway Information

Helipad H1

Dimensions: 80 x 80 ft. / 24 x 24 m
Surface: asphalt/concrete, in fair condition
Runway edge lights: PERI
FOR PERIMETER LGTS CALL 814-260-5281.
Latitude: 41-46.300000N
Longitude: 077-58.783333W
Elevation: 1735.0 ft.
Traffic pattern: leftleft
Markings: none, in fair condition

Heliport Ownership and Management from official FAA records

Ownership: Privately-owned
Owner: CHARLES COLE MEMORIAL HOSPITAL
1001 EAST SECOND ST
COUDERSPORT, PA 16915
Phone 814-274-9300
Manager: MELVIN BLAKE
1001 EAST SECOND ST
COUDERSPORT, PA 16915
Phone 814-260-5281

Heliport Operational Statistics

Aircraft based on the field: 1
Helicopters: 1
    

Additional Remarks

A52-H1 RY H1 20 FT BLDG LGTD NEAR PAD.
FOR CD CTC CLEVELAND ARTCC AT 440-774-0227.

Instrument Procedures

There are no published instrument procedures at PN09.

Some nearby airports with instrument procedures:

KELZ - Wellsville Municipal Airport, Tarantine Field (20 nm N)
N38 - Wellsboro Johnston Airport (26 nm E)
KBFD - Bradford Regional Airport (30 nm W)
KOYM - St Marys Municipal Airport (32 nm SW)
KOLE - Cattaraugus County-Olean Airport (33 nm NW)
 
Loc | Ops | Rwys | IFR | FBO | Links
Com | Nav | Svcs | Stats | Notes
Area around PN09 (Charles Cole Memorial Hospital Heliport)
 
Road maps at: MapQuest Bing Google
 
Aerial photo
No photo
 
Sectional chart

 
Airport distance calculator
Flying to Charles Cole Memorial Hospital Heliport? Find the distance to fly.

From to PN09

Sunrise and sunset
Times for 12-Jul-2020
 Local
(UTC-4)
 Zulu
(UTC)
Morning civil twilight05:1609:16
Sunrise05:5009:50
Sunset20:4600:46
Evening civil twilight21:1901:19

Current date and time
Zulu (UTC)  12-Jul-2020 19:45:19
Local (UTC-4)  12-Jul-2020 15:45:19
 
METAR
KELZ 
20nm N 
121856Z AUTO 25004KT 10SM OVC100 23/16 A2981 RMK AO2 SLP083 T02330161
KN38 
26nm E 
121935Z AUTO VRB04KT 10SM FEW095 FEW110 27/15 A2977 RMK AO2 LTG DSNT SW
KBFD 
29nm W 
121853Z AUTO 29013G17KT 10SM SCT048 BKN100 25/14 A2981 RMK AO2 LTG DSNT S SLP076 T02500139
KOYM 
32nm SW 
121935Z AUTO 24004KT 10SM SCT038 SCT080 BKN120 22/17 A2982 RMK AO2 LTG DSNT E
KOLE 
33nm NW 
121935Z AUTO 29005KT 10SM SCT036 BKN055 BKN100 23/14 A2981 RMK AO2 LTG DSNT SW
TAF
KBFD 
29nm W 
121748Z 1218/1318 VRB04KT P6SM FEW035 FEW060 SCT080 FM130900 VRB03KT 6SM BR SCT025 FM131300 30007KT P6SM OVC015 FM131500 31008KT P6SM BKN050
NOTAMs
Click for the latest NOTAMs
NOTAMs are issued by the DoD/FAA and will open in a separate window not controlled by AirNav.

 

 
 

Would you like to see your business listed on this page?

 If your business provides an interesting product or service to pilots, flight crews, aircraft, or users of the Charles Cole Memorial Hospital Heliport, you should consider listing it here.  To start the listing process, click on the button below
 
Add a business
 

Other Pages about Charles Cole Memorial Hospital Heliport

Update a link
 
Copyright © AirNav, LLC. All rights reserved. Privacy Policy  Contact